Date,TemperatureHighF,TemperatureAvgF,TemperatureLowF,DewpointHighF,DewpointAvgF,DewpointLowF,HumidityHigh,HumidityAvg,HumidityLow,PressureMaxIn,PressureMinIn,WindSpeedMaxMPH,WindSpeedAvgMPH,GustSpeedMaxMPH,PrecipitationSumIn
2013-3-1,65.7,62.0,58.3,58.6,52.7,48.6,85,72,59,29.99,29.90,13,4,13,0.00
2013-3-2,67.1,58.6,51.3,50.7,43.6,36.0,81,59,40,30.04,29.96,29,7,29,0.00
2013-3-3,63.1,55.1,50.2,47.7,43.6,39.9,87,67,47,30.15,29.96,21,6,22,0.00
2013-3-4,70.5,54.6,42.1,47.1,38.1,29.8,88,57,24,30.22,30.12,20,5,20,0.00
2013-3-5,69.6,53.9,49.1,56.8,48.9,46.2,93,84,59,30.19,30.13,8,1,8,0.00
2013-3-7,73.6,65.1,55.9,55.9,50.1,43.0,92,61,35,30.19,30.10,11,3,12,0.00
2013-3-8,78.4,63.2,51.1,55.0,50.9,41.5,93,69,29,30.20,30.10,13,3,13,0.00
2013-3-9,76.3,65.0,53.4,58.5,54.3,50.9,92,70,50,30.19,30.10,21,4,21,0.00
2013-3-10,72.9,67.1,64.9,56.3,54.6,53.1,70,64,55,30.16,30.07,17,4,17,0.00
2013-3-13,69.4,68.1,67.3,58.5,57.5,57.0,70,69,68,30.11,30.10,15,9,15,0.00
2013-3-14,72.3,64.7,55.9,50.5,44.7,37.6,79,51,31,30.20,30.12,21,9,23,0.00
2013-3-15,66.2,56.1,51.6,50.9,47.7,45.3,81,74,55,30.25,30.17,12,6,12,0.00
2013-3-18,80.1,73.8,67.3,70.3,67.5,65.5,96,82,67,30.07,29.96,20,6,21,0.25
2013-3-19,80.8,72.8,68.0,70.0,67.9,64.8,96,85,65,30.01,29.82,24,3,28,0.00
2013-3-20,86.4,73.1,63.7,70.5,64.9,57.4,98,78,48,29.98,29.81,19,3,22,0.00
2013-3-21,70.3,64.5,61.7,62.4,59.3,46.0,94,84,44,29.95,29.83,19,6,19,0.00
2013-3-23,87.3,81.4,75.7,73.9,72.1,67.8,90,74,56,29.95,29.80,18,6,19,0.00
2013-3-24,88.3,79.1,72.1,73.8,71.9,66.9,96,80,55,29.89,29.68,31,9,36,0.00
2013-3-25,80.4,73.5,64.2,73.2,61.0,43.5,95,68,37,29.99,29.74,20,5,20,0.00
2013-3-26,64.2,59.0,55.8,45.0,41.4,35.8,60,52,39,30.12,29.99,27,9,27,0.00
2013-3-28,75.4,67.4,56.8,51.6,44.9,36.1,72,46,27,30.27,30.17,17,5,19,0.00
2013-3-29,75.0,65.0,54.9,54.3,50.6,45.3,81,61,40,30.29,30.20,18,5,19,0.00
2013-3-30,72.0,61.8,56.1,57.9,54.0,51.1,91,77,48,30.27,30.20,15,2,15,0.00